Talkeetna, AK

2:16 AM AKST on February 22, 2017 (GMT -0900)
Talkeetna

Weather History for PATK - March, 2014

Change the Weather History Date:

Friday, March 21, 2014

  Actual Average Record
Temperature  
Mean Temperature 26 °F -  
Max Temperature 37 °F 36 °F 52 °F (1998)
Min Temperature 14 °F 17 °F -25 °F (1962)
Degree Days  
Heating Degree Days 40    
Moisture  
Dew Point 5 °F    
Average Humidity 39    
Maximum Humidity 56    
Minimum Humidity 16    
Precipitation  
Precipitation 0.00 in - - ()
Sea Level Pressure  
Sea Level Pressure 30.38 in    
Wind  
Wind Speed 5 mph (North)    
Max Wind Speed 9 mph    
Max Gust Speed -    
Visibility 10 miles    
Events      
Averages and records for this station are not official NWS values.
T = Trace of Precipitation, MM = Missing Value Source: NWS Daily Summary

Daily Weather History Graph

Daily Weather History Graph

Search for Another Location

Airport or City:

Trip Planner

Search our weather history database for the weather conditions in past years. The results will help you decide how hot, cold, wet, or windy it might be!

Date:

Astronomy

Mar. 21, 2014 Rise Set
Actual Time 7:57 AM AKDT 8:18 PM AKDT
Civil Twilight 7:12 AM AKDT 9:04 PM AKDT
Nautical Twilight 6:18 AM AKDT 9:58 PM AKDT
Astronomical Twilight 5:17 AM AKDT 11:00 PM AKDT
Moon 2:10 AM AKDT (3/21) 9:31 AM AKDT (3/21)
Length of Visible Light 13h 51m
Length of Day
12h 21m
Waning Gibbous, 74% of the Moon is Illuminated
Mar 21
Waning Gibbous
Mar 23
Last Quarter
Mar 30
New
Apr 7
First Quarter
Apr 14
Full

Hourly Weather History & Observations

Time (AKDT) Temp. Windchill Dew Point Humidity Pressure Visibility Wind Dir Wind Speed Gust Speed Precip Events Conditions
12:53 AM 23.0 °F 15.8 °F 3.9 °F 44% 30.36 in 10.0 mi North 5.8 mph - N/A   Clear
1:53 AM 21.9 °F 15.7 °F 3.9 °F 46% 30.36 in 10.0 mi NNW 4.6 mph - N/A   Clear
2:53 AM 21.0 °F 14.6 °F 3.9 °F 48% 30.37 in 10.0 mi North 4.6 mph - N/A   Clear
3:53 AM 15.1 °F - 1.9 °F 56% 30.37 in 10.0 mi Calm Calm - N/A   Clear
4:53 AM 17.1 °F 10.0 °F 3.0 °F 54% 30.37 in 10.0 mi North 4.6 mph - N/A   Clear
5:53 AM 19.0 °F 11.1 °F 1.9 °F 47% 30.37 in 10.0 mi North 5.8 mph - N/A   Clear
6:53 AM 18.0 °F 8.7 °F 1.9 °F 50% 30.37 in 10.0 mi North 6.9 mph - N/A   Clear
7:53 AM 18.0 °F 9.8 °F 1.9 °F 50% 30.37 in 10.0 mi North 5.8 mph - N/A   Clear
8:53 AM 19.9 °F 12.1 °F 1.9 °F 46% 30.38 in 10.0 mi North 5.8 mph - N/A   Partly Cloudy
9:53 AM 21.9 °F 15.7 °F 3.0 °F 44% 30.40 in 10.0 mi North 4.6 mph - N/A   Partly Cloudy
10:53 AM 25.0 °F 15.5 °F 3.9 °F 41% 30.40 in 10.0 mi NE 9.2 mph - N/A   Partly Cloudy
11:53 AM 28.9 °F 20.4 °F 5.0 °F 36% 30.40 in 10.0 mi NE 9.2 mph - N/A   Partly Cloudy
12:53 PM 30.9 °F 23.5 °F 6.1 °F 35% 30.40 in 10.0 mi NNE 8.1 mph - N/A   Clear
1:53 PM 34.0 °F 27.2 °F 7.0 °F 32% 30.39 in 10.0 mi NNE 8.1 mph - N/A   Clear
2:53 PM 35.1 °F 28.6 °F 7.0 °F 31% 30.39 in 10.0 mi NE 8.1 mph - N/A   Clear
3:53 PM 37.0 °F 30.4 °F 7.0 °F 29% 30.38 in 10.0 mi North 9.2 mph - N/A   Clear
4:53 PM 37.0 °F 32.4 °F 7.0 °F 29% 30.38 in 10.0 mi North 5.8 mph - N/A   Unknown
5:53 PM 37.0 °F 31.0 °F 7.0 °F 29% 30.38 in 10.0 mi NNE 8.1 mph - N/A   Clear
6:53 PM 36.0 °F 31.1 °F 7.0 °F 30% 30.37 in 10.0 mi Variable 5.8 mph - N/A   Clear
7:53 PM 33.1 °F 30.0 °F 7.0 °F 34% 30.38 in 10.0 mi North 3.5 mph - N/A   Clear
8:53 PM 30.0 °F 25.2 °F 7.0 °F 38% 30.38 in 10.0 mi North 4.6 mph - N/A   Clear
9:53 PM 28.0 °F 22.8 °F 7.0 °F 41% 30.38 in 10.0 mi North 4.6 mph - N/A   Clear
10:53 PM 27.0 °F 20.5 °F 6.1 °F 41% 30.38 in 10.0 mi North 5.8 mph - N/A   Clear
11:53 PM 25.0 °F 18.1 °F 6.1 °F 45% 30.39 in 10.0 mi North 5.8 mph - N/A   Clear